Satellite: NOAA-17
Catalog number: 27453
Epoch time:      05090.41725855
Element set:     321
Inclination:      098.6654 deg
RA of node:       165.0927 deg
Eccentricity:    0.0010801
Arg of perigee:   280.1211 deg
Mean anomaly:     079.8749 deg
Mean motion:   14.23646503 rev/day
Decay rate:        8.2e-07 rev/day^2
Epoch rev:           14377
Checksum:              300

/EX
SB KEPS @ AMSAT  $ORB05090.M
Orbital Elements  05090.MISC

HR AMSAT ORBITAL ELEMENTS FOR MANNED AND MISCELLANEOUS SATELLITES
FROM WA5QGD FORT WORTH,TX March 31, 2005
SEND SUBSCRIBE/UNSUBSCRIBE TO majordomo@amsat.org ONLY
BID: ORB05090.M
TO ALL RADIO AMATEURS BT

Satellite: HUBBLE
Catalog number: 20580
Epoch time:      05089.92946758
Element set:    0307
Inclination:      028.4675 deg
RA of node:       058.6672 deg
Eccentricity:    0.0003993
Arg of perigee:   165.1674 deg
Mean anomaly:     194.9032 deg
Mean motion:   14.99651240 rev/day
Decay rate:       7.31e-06 rev/day^2
Epoch rev:           61848
Checksum:              333

Satellite: UARS
Catalog number: 21701
Epoch time:      05089.82141276
Element set:    0409
Inclination:      056.9799 deg
RA of node:       147.7137 deg
Eccentricity:    0.0005468
Arg of perigee:   102.6274 deg
Mean anomaly:     257.5480 deg
Mean motion:   15.03786171 rev/day
Decay rate:     -1.172e-05 rev/day^2
Epoch rev:           74170
Checksum:              306

Satellite: PO-34
Catalog number: 25520
Epoch time:      05089.71869476
Element set:    0168
Inclination:      028.4589 deg
RA of node:       116.8596 deg
Eccentricity:    0.0005892
Arg of perigee:   093.2266 deg
Mean anomaly:     266.8992 deg
Mean motion:   15.16184207 rev/day
Decay rate:       8.95e-06 rev/day^2
Epoch rev:           35466
Checksum:              363

Satellite: ISS
Catalog number: 25544
Epoch time:      05090.88703704
Element set:     139
Inclination:      051.6457 deg
RA of node:       296.4686 deg
Eccentricity:    0.0005599
Arg of perigee:   316.5422 deg
Mean anomaly:     245.0803 deg
Mean motion:   15.70495409 rev/day
Decay rate:     1.6539e-04 rev/day^2
Epoch rev:           36352
Checksum:              320

Satellite: WO-39
Catalog number: 26061
Epoch time:      03303.41062303
Element set:     973
Inclination:      100.1904 deg
RA of node:       047.3011 deg
Eccentricity:    0.0034615
Arg of perigee:   281.6926 deg
Mean anomaly:     078.0378 deg
Mean motion:   14.38082544 rev/day
Decay rate:      2.252e-05 rev/day^2
Epoch rev:           19701
Checksum:              268

Satellite: OO-38
Catalog number: 26063
Epoch time:      05089.58676189
Element set:    0320
Inclination:      100.2257 deg
RA of node:       295.2041 deg
Eccentricity:    0.0036596
Arg of perigee:   276.6812 deg
Mean anomaly:     083.0200 deg
Mean motion:   14.35708937 rev/day
Decay rate:       -2.9e-07 rev/day^2
Epoch rev:           27102
Checksum:              301

Satellite: NO-45
Catalog number: 26932
Epoch time:      05090.83512291
Element set:     999
Inclination:      067.0578 deg
RA of node:       066.6632 deg
Eccentricity:    0.0008881
Arg of perigee:   258.6567 deg
Mean anomaly:     101.3555 deg
Mean motion:   14.29476298 rev/day
Decay rate:      -1.91e-06 rev/day^2
Epoch rev:           18274
Checksum:              345

/EX



----
Via the keps mailing list at AMSAT.ORG courtesy of AMSAT-NA.
To unsubscribe, send "unsubscribe keps" to Majordomo@amsat.org

--- ViaMAIL!/WC v1.60d
 * Origin: Chowdanet (401-331-0615) telnet://chowdanet.com  (1:323/120)